Regional Weather Roundup
Issued by NWS Kansas City/Pleasant Hill, MO

Home | Current Version | Previous Version | Graphics & Text | Print | Product List | Glossary Off
Versions: 1 2 3 4 5 6 7 8 9 10 11 12 13 14 15 16 17 18 19 20 21 22 23 24 25 26 27 28

000
ASUS43 KEAX 251010
RWREAX

WEATHER ROUNDUP FOR EASTERN KANSAS AND NORTHWEST MISSOURI
NATIONAL WEATHER SERVICE KANSAS CITY/PLEASANT HILL MO
500 AM CDT WED APR 25 2018

KSZ040-057-103>105-MOZ028-029-037-043-251100-
...KANSAS CITY METROPOLITAN AREA...

CITY           SKY/WX    TMP DP  RH WIND       PRES   REMARKS
K.C. INTL      CLOUDY    53  43  68 NW10      30.14R
K.C. DOWNTOWN  CLOUDY    56  43  61 N10       30.12R
LEES SUMMIT    CLOUDY    56  46  69 N15       30.11R
OLATHE - IXD   CLOUDY    55  46  71 NW10      30.15R
OLATHE - OJC   CLOUDY    55  45  68 NW10      30.13R
LAWRENCE       LGT RAIN  54  47  77 NW13      30.16R

$$

MOZ001>008-011>017-020>025-030>033-038>040-044>046-053-054-251100-
...NORTHERN AND CENTRAL MISSOURI...

CITY           SKY/WX    TMP DP  RH WIND       PRES   REMARKS
ST. JOSEPH     LGT RAIN  51  45  79 N7        30.17R
MOSBY          LGT RAIN  55  43  62 N8        30.12R
WARRENSBURG    CLOUDY    55  45  67 NW6       30.08S
WHITEMAN AFB   MOCLDY    56  46  67 N8        30.04R
CLINTON        CLOUDY    55  45  67 NE7       30.08R
SEDALIA        CLOUDY    57  47  69 N9        30.08R
WARSAW         NOT AVBL
CHILLICOTHE      N/A     55  41  59 N9        30.11S
KIRKSVILLE     CLOUDY    54  39  57 N14       30.09S

$$

MOZ041-047>049-056>058-063>065-088>090-097-251100-
...EASTERN AND SOUTHERN MISSOURI...

CITY           SKY/WX    TMP DP  RH WIND       PRES   REMARKS
ST. LOUIS INTL PTCLDY    48  39  71 W5        29.99S
SPIRIT OF STL  CLEAR     44  40  85 W6        30.00R
COLUMBIA       PTCLDY    54  43  66 N12       30.04F
JEFFERSON CITY CLOUDY    52  41  66 W3        30.04S
ROLLA          CLEAR     50  40  68 NW7       30.04R
OSAGE BEACH    CLOUDY    52  44  74 CALM      30.06R
SPRINGFIELD    CLOUDY    49  41  74 CALM      30.04S
BRANSON        PTCLDY    54  39  58 CALM      30.05F
JOPLIN         CLOUDY    53  47  79 NW10      30.10R
WEST PLAINS    CLEAR     49  45  86 W6        30.04S

$$

IAZ060-094-KSZ022-034>040-054-083-096-NEZ052-066-093-251100-
...KANSAS...SOUTHEAST NEBRASKA AND IOWA...

CITY           SKY/WX    TMP DP  RH WIND       PRES   REMARKS
TOPEKA         LGT RAIN  52  50  93 NW7       30.17R
MANHATTAN      LGT RAIN  50  49  96 CALM      30.17F
EMPORIA        LGT RAIN  49  47  93 NW9       30.17S
CHANUTE        LGT RAIN  53  50  89 W10       30.15R
WICHITA        RAIN      46  45  96 NW15      30.22R
OMAHA          CLOUDY    46  43  89 NW10      30.22R
LINCOLN        LGT RAIN  44  42  93 N16G25    30.25S FOG
FALLS CITY     LGT RAIN  49  44  83 N9        30.17S
LAMONI         CLOUDY    50  42  74 N14       30.12S
DES MOINES     CLOUDY    50  38  63 N10       30.16S

$$





USA.gov is the U.S. government's official web portal to all federal, state and local government web resources and services.